THOR ABLESTAR DEB, 48819

Orbit data source: Space-Track

THOR ABLESTAR DEB, 48819 is space debris in LEO originally from a launch on Thu, 29 Jun 1961 UTC launched from the Air Force Eastern Test Range (AFETR). Debris objects in space refer to the collection of defunct objects orbiting the Earth. Examples of debris include non-operational satellites, rocket bodies, and fragments generated from explosions, collisions, or faulty payload assembly.

Loading next visibility...
Identifier
48819, 1961-015MX
Orbit
LEO
Country
Flag of USUS
Related business
Manufacturer
Unknown
Mission
Spacecraft
Bus & Motor
Unknown
Mass
Unknown
Launch date (UTC)
1961-06-29 (65 years ago)
Launch vehicle
Unknown
Launch site
Air Force Eastern Test Range (AFETR)
Object type
Payload
Rocket body
Debris
Shape & HBR
Unknown shape, 0.1 m
Radar Cross Section
Small (<0.1 m²)

Expand to show TLE details & history
Last TLE update: 3 days ago

TLE from 3 days ago
0 THOR ABLESTAR DEB
1 48819U 61015MX  26104.84872178  .00000124  00000-0  17179-3 0  9996
2 48819  66.5351 266.8112 0021331 146.9473 213.2940 13.87221337627427
Epoch: 2026-04-14T20:22Z
TLE epoch observation values (Epoch: 2026-04-14T20:22:09.561Z)
Latitude
-0.00002°
Longitude
118.25227°
Altitude
953.494 km
Speed
7.369 km/s
True Right ascension
17h 47m 14s
True Declination
0° 00' 00"
Sunlit
Object was in daylight at epoch
Visualization orbit readout
Latitude
Unknown
Longitude
Unknown
Altitude
Unknown
Speed
Unknown
Apparent Right ascension
Unknown
Apparent Declination
Unknown
Sunlit
N/A
Visualization observer readout
Local Sidereal Time
01:32:19
Azimuth
Unknown
Elevation
Unknown
Doppler factor
Unknown
Orbital elements
Apogee altitude
952.415 km
Perigee altitude
921.208 km
Semi-major axis
7,314.948 km
Eccentricity
0.00213
Inclination
66.5351°
RAAN
266.8112°
Arg. of periapsis
146.9473°
True anomaly
213.16012°
Mean anomaly
213.294°
Eccentric anomaly
213.22703°
Mean motion
3.46918 °/min
Orbital period
103.77 mins
BSTAR
0.00017179
Loading maneuver chart data...
Computing Atmospheric mass density...
Loading historical data...
Loading historical data...
Loading historical data...
Loading historical data...
Loading historical data...
Loading historical data...
Loading historical data...

Documentation

Showing up to 5 results
|